ヴィルト第2彗星

81P/Wild 2 (2003)

English version
Home page
Total 6,336 html files since Dec. 4, 1995
Updated on August 6, 2006

---------------------------------------------------------------------

・ プロフィール

・ 軌道要素

Epoch 2003 Oct. 8.0 TT = JDT 2452920.5  
T 2003 Sept. 25.94027 TT                                Muraoka 
q   1.5903670            (2000.0)            P               Q
n   0.15392440     Peri.   41.75124     -0.99858605     -0.03594575
a   3.4482421      Node   136.14140     +0.01947027     -0.93284627
e   0.5387890      Incl.    3.24027     +0.04946527     -0.35847698
P   6.40
From 760 observations 1978-1997, mean residual 0".80.  Nongravitational
   parameters A1 = +0.11 +/- 0.01, A2 = +0.0209 +/- 0.0002.

・ 星図

・ 光度変化

        m1 = 6.0 + 5 logΔ + 20.0 log r(t + 40)  [   ,100]  (              〜2004年 1月 3日)
        m1 = 9.0 + 5 logΔ + 12.5 log r          [100,   ]  (2004年 1月 3日〜              )

---------------------------------------------------------------------

軌道要素は村岡健治氏の計算によるものです。
星図は StellaNavigator Ver.2.0 for Windows (アストロアーツ 編著 / アスキー出版局刊) で作成したものです。
光度グラフはComet for Windowsで作成したものです。

---------------------------------------------------------------------

Copyright(C) 1995-2008 Seiichi Yoshida (comet@aerith.net). All rights reserved.